Wind_Speed
27 26 25 24 23 23 22 22 22 22 23 23 23 24 24 25 25 25 26 26 25 25 25 26 26 26 26 26 26 26 26 26 27 27 27 27 27 27 27 28 28 28 29
29 28 27 26 25 25 25 25 25 25 25 25 26 26 26 27 27 27 27 27 27 27 27 27 27 27 27 27 28 28 28 28 28 28 28 28 28 29 29 29 30 30 31
30 30 29 28 27 27 27 27 27 26 27 27 28 29 28 28 28 28 28 29 29 29 29 29 29 29 29 29 29 29 29 30 30 30 30 30 31 31 31 32 32 32 33
31 31 30 29 28 28 28 28 28 28 28 29 30 30 30 29 29 29 30 30 30 30 31 31 31 31 31 31 31 31 32 32 32 32 32 32 32 33 33 34 34 35 35
32 31 31 30 30 29 29 29 29 30 30 30 30 31 31 31 31 32 32 32 32 32 32 32 32 32 33 33 33 34 34 34 34 34 34 35 35 35 36 36 37 37 38
32 31 31 30 30 31 31 31 31 31 31 32 32 32 32 33 33 33 33 33 33 33 33 33 33 34 34 35 35 36 36 36 37 37 38 38 38 38 38 39 39 40 40
33 33 32 32 31 31 32 33 33 33 33 33 33 33 33 34 34 34 34 34 34 34 34 35 35 35 35 36 37 37 38 39 39 39 40 40 40 40 41 41 42 43 43
34 34 34 32 32 33 33 34 34 34 35 35 34 34 34 34 35 35 35 35 36 36 36 36 36 37 37 38 39 39 40 40 40 41 41 41 42 42 43 44 44 45 45
34 35 34 33 33 33 34 35 35 36 36 36 36 36 36 36 36 36 36 36 37 37 37 38 38 39 39 40 41 42 42 42 42 42 42 43 43 44 45 46 46 47 47
34 34 34 34 34 35 36 36 37 37 37 37 38 37 37 36 36 36 37 37 38 38 39 39 40 40 41 42 42 43 43 43 44 44 44 45 45 46 47 48 48 48 49
33 33 34 35 35 36 36 36 37 38 38 38 38 38 38 38 37 37 37 38 40 40 41 41 42 42 42 42 42 43 43 44 45 46 46 47 47 48 48 48 48 48 49
34 34 33 34 35 36 37 37 37 39 39 39 39 39 40 40 40 40 40 40 40 41 42 42 43 42 42 42 43 44 45 46 47 48 49 49 49 49 49 49 49 49 49
34 34 34 34 36 38 39 39 39 39 39 39 40 40 40 41 42 42 42 42 42 42 43 43 43 44 44 45 46 47 48 49 50 50 50 51 51 51 51 51 50 50 51
35 35 35 36 37 38 39 40 40 40 41 41 41 41 42 42 43 44 44 44 44 44 45 46 46 46 47 48 49 49 50 50 51 51 51 52 52 52 52 51 51 52 51
36 36 37 37 38 39 39 40 41 41 42 43 43 44 45 45 45 45 46 46 47 46 47 48 49 49 49 50 51 51 51 52 52 52 53 53 53 53 53 52 52 52 52
38 38 39 40 40 41 41 42 42 43 44 44 45 46 46 46 46 47 48 49 49 50 49 50 51 51 51 52 53 53 53 53 53 53 54 54 54 54 54 54 54 53 53
39 40 41 42 42 42 43 43 43 44 44 45 46 47 48 48 47 48 49 50 51 52 52 52 52 53 54 53 54 54 54 54 55 55 55 55 55 55 55 55 54 54 54
40 41 42 43 43 43 44 44 44 45 45 46 47 48 49 50 50 50 51 51 52 52 53 52 52 53 53 53 53 54 55 55 55 56 56 56 55 55 55 55 55 55 54
41 42 43 44 44 44 44 45 46 46 47 47 48 49 49 50 51 51 52 52 53 53 53 53 53 53 53 54 54 54 55 55 55 56 56 55 55 56 55 55 54 54 53
43 44 45 45 46 46 46 46 47 47 48 49 49 49 50 51 52 52 52 52 53 53 54 54 54 54 54 55 55 55 55 55 56 56 56 56 56 56 55 55 54 53 52
45 46 46 47 47 47 47 47 48 49 49 49 50 50 51 52 52 53 53 53 53 53 53 54 54 54 55 55 55 55 55 56 56 56 56 57 56 56 55 55 54 53 52
47 47 48 48 48 48 48 49 49 49 50 50 50 51 51 52 53 53 53 54 54 54 53 54 54 54 55 56 56 56 56 56 56 56 56 56 56 55 55 54 53 52 52
48 48 49 49 49 49 49 49 49 49 50 50 51 52 52 53 53 53 53 53 54 53 54 54 54 55 55 56 56 56 56 56 56 56 56 55 55 55 54 53 52 51 51
49 49 49 49 49 50 50 50 50 51 51 52 52 52 53 53 54 54 53 53 53 54 54 54 55 55 56 56 56 56 56 56 55 54 54 53 53 52 52 52 52 51 50
50 50 50 50 50 50 51 51 52 52 52 52 52 52 53 54 54 55 55 54 54 55 55 55 55 55 55 55 55 55 55 54 53 52 52 51 51 51 51 51 51 50 49
51 51 51 51 51 52 52 53 53 53 53 53 53 53 54 54 54 55 55 54 55 54 55 54 54 54 54 54 54 53 53 52 52 51 51 51 51 52 51 51 51 50 49
Wind_Direction
239 243 248 251 254 256 259 263 266 269 272 274 276 279 280 283 285 286 287 289 289 290 290 292 293 294 294 294 294 295 295 296 295 294 293 293 293 294 294 294 295 295 295
241 245 248 253 256 258 261 263 265 268 271 274 277 279 281 283 284 286 287 288 288 288 289 290 291 292 292 292 293 294 294 294 294 294 293 292 292 292 293 294 295 295 294
243 246 249 253 257 260 263 263 265 269 272 273 276 278 280 282 283 285 285 286 286 287 287 288 289 289 289 291 292 293 294 293 293 293 292 291 291 292 292 292 293 294 294
243 246 250 253 256 260 262 262 264 269 272 275 277 278 279 281 282 283 284 285 285 286 287 287 287 287 288 289 291 292 292 293 292 292 292 291 291 291 291 292 292 293 292
245 247 251 254 258 261 263 264 265 269 272 276 278 278 279 281 282 282 282 284 284 285 286 286 286 286 286 287 288 290 291 291 292 292 291 291 291 290 290 291 292 292 292
246 249 253 257 260 262 263 265 268 270 272 275 277 279 280 280 281 281 282 282 283 284 284 285 284 284 285 286 287 288 289 290 290 290 290 289 289 290 290 291 292 292 292
249 252 255 259 262 264 265 265 268 271 272 274 276 277 278 279 279 280 281 282 283 283 284 284 284 284 285 286 287 287 289 290 290 290 289 289 289 290 290 291 291 292 292
251 254 256 260 264 266 267 268 270 273 273 273 275 277 277 278 279 280 281 282 282 283 283 283 284 284 285 285 286 288 289 290 290 291 291 290 290 289 290 291 291 292 291
252 255 259 262 265 267 268 269 271 272 273 273 275 277 278 277 280 281 281 281 282 282 283 283 284 284 284 285 287 287 288 288 289 290 290 290 290 290 291 291 291 291 291
255 258 262 264 266 268 269 270 271 272 273 273 274 276 277 279 280 281 281 281 282 283 283 284 284 284 285 285 286 287 287 288 288 289 290 290 291 291 291 291 291 291 290
258 261 265 265 267 269 270 272 273 274 275 275 276 276 277 279 280 281 281 281 281 282 283 284 285 285 285 285 286 286 286 287 287 288 289 289 290 291 291 291 291 291 290
262 265 266 268 269 270 272 274 275 276 277 277 277 277 278 278 279 280 281 281 281 282 283 283 284 285 284 284 285 285 286 286 287 287 288 289 290 291 291 291 291 291 291
264 265 267 268 270 272 273 275 276 275 276 276 277 277 278 279 279 280 281 282 282 283 283 283 283 284 285 285 285 285 286 286 287 287 288 289 290 290 291 291 292 292 291
264 266 267 268 270 271 273 275 275 275 275 275 276 277 279 279 279 280 281 281 282 282 283 283 283 284 285 285 285 286 286 286 287 287 288 289 290 290 291 292 292 292 292
265 268 270 271 272 273 274 275 276 275 276 276 276 277 277 278 279 279 280 280 281 281 281 283 283 283 284 285 286 287 287 287 287 287 288 289 290 291 291 292 293 293 292
268 271 273 273 274 274 275 276 277 277 276 277 277 277 277 277 278 279 279 280 280 281 281 282 283 284 284 285 286 286 287 287 288 288 289 289 290 291 291 292 293 293 293
270 273 275 275 275 276 276 277 277 277 277 276 276 276 276 277 278 279 279 280 281 281 282 283 284 285 285 285 285 286 287 288 288 289 289 290 290 291 291 292 293 293 293
273 275 276 276 276 276 277 277 278 278 277 277 277 276 276 276 277 278 279 280 281 282 282 283 284 285 285 286 286 286 287 288 289 289 289 290 291 291 292 292 292 292 291
275 276 277 277 278 277 277 278 278 279 279 278 278 277 277 277 278 278 279 280 281 282 283 283 284 284 285 285 286 287 288 288 289 289 289 290 291 291 292 292 292 291 290
277 278 278 278 278 278 278 278 279 279 280 280 278 278 277 278 278 278 279 280 281 282 283 283 284 284 285 285 286 287 288 288 288 289 289 290 290 291 291 291 291 290 289
276 277 278 278 278 278 278 278 278 279 279 279 279 279 278 278 279 279 279 280 281 282 283 284 284 284 285 285 286 287 287 288 288 289 289 290 290 291 291 290 290 289 288
277 277 277 278 278 278 279 278 279 279 279 279 280 279 279 279 279 279 280 280 281 283 284 284 284 285 285 286 286 287 288 288 288 288 289 290 290 289 289 289 289 288 288
277 278 278 278 279 279 279 280 280 281 281 281 280 280 280 280 280 280 280 281 282 283 284 284 285 286 286 286 287 287 288 288 289 289 289 289 289 288 288 288 288 288 288
278 278 278 278 279 279 280 280 281 282 282 282 281 281 280 280 280 280 280 281 281 282 283 284 285 285 286 287 287 287 288 289 290 289 288 288 287 287 288 288 288 288 287
278 278 279 279 279 279 280 280 281 282 282 282 281 281 281 280 280 281 281 281 281 282 283 283 284 285 286 287 288 288 289 289 289 288 288 288 288 287 288 288 288 288 288
278 279 279 279 280 280 281 281 282 283 282 282 281 281 282 281 281 281 281 281 281 281 282 283 284 285 286 287 288 289 289 289 289 288 288 288 288 288 288 288 288 287 287
Height
5815 5817 5819 5820 5822 5824 5825 5827 5828 5829 5829 5830 5830 5830 5830 5830 5830 5829 5828 5828 5827 5826 5825 5824 5823 5822 5820 5819 5818 5817 5816 5814 5813 5811 5810 5809 5807 5806 5805 5803 5802 5801 5799
5810 5812 5814 5816 5817 5819 5821 5822 5823 5823 5824 5825 5825 5825 5825 5825 5824 5824 5823 5822 5821 5820 5819 5818 5817 5816 5815 5814 5812 5811 5810 5809 5807 5806 5804 5803 5801 5800 5799 5797 5796 5794 5793
5805 5807 5809 5811 5813 5814 5815 5816 5817 5818 5819 5819 5819 5819 5819 5819 5818 5818 5817 5816 5816 5815 5814 5813 5812 5810 5809 5808 5807 5805 5804 5803 5801 5800 5798 5797 5795 5794 5792 5791 5789 5788 5786
5799 5801 5804 5806 5807 5809 5810 5811 5812 5812 5813 5813 5814 5813 5813 5812 5812 5811 5811 5810 5809 5808 5807 5806 5805 5804 5803 5802 5800 5799 5798 5796 5795 5793 5791 5790 5788 5787 5785 5784 5782 5780 5778
5793 5796 5798 5800 5802 5803 5804 5805 5806 5806 5807 5807 5807 5807 5806 5806 5806 5805 5804 5803 5802 5801 5800 5799 5798 5797 5796 5795 5793 5792 5791 5789 5787 5786 5784 5782 5781 5779 5777 5776 5774 5772 5770
5788 5790 5792 5794 5795 5797 5798 5799 5799 5799 5799 5800 5799 5799 5799 5799 5798 5798 5797 5796 5795 5794 5793 5792 5791 5789 5788 5787 5786 5784 5783 5781 5779 5778 5776 5774 5772 5771 5769 5767 5765 5762 5760
5782 5784 5786 5787 5789 5790 5791 5792 5792 5793 5793 5793 5793 5792 5791 5791 5790 5789 5789 5788 5787 5786 5785 5784 5783 5781 5780 5779 5778 5776 5774 5773 5771 5769 5767 5765 5763 5761 5759 5757 5755 5753 5750
5776 5777 5779 5781 5782 5783 5784 5785 5785 5785 5785 5785 5785 5784 5784 5784 5782 5781 5781 5780 5779 5778 5777 5776 5774 5773 5772 5771 5769 5767 5766 5764 5762 5760 5758 5756 5754 5752 5749 5747 5745 5742 5740
5769 5771 5772 5774 5775 5776 5777 5777 5778 5778 5777 5777 5777 5777 5776 5775 5774 5774 5772 5771 5770 5769 5768 5767 5766 5765 5763 5762 5760 5758 5756 5754 5752 5750 5748 5746 5744 5741 5739 5736 5734 5731 5728
5762 5764 5765 5767 5768 5768 5769 5769 5769 5769 5769 5769 5768 5768 5767 5766 5766 5765 5764 5762 5761 5760 5759 5758 5756 5755 5753 5752 5750 5748 5746 5744 5742 5740 5738 5735 5733 5730 5727 5725 5722 5719 5716
5755 5757 5758 5759 5760 5760 5761 5761 5761 5761 5760 5760 5759 5758 5758 5757 5756 5755 5755 5753 5752 5750 5749 5748 5746 5745 5743 5741 5740 5738 5736 5734 5731 5729 5727 5724 5721 5718 5716 5713 5710 5707 5704
5748 5749 5750 5751 5752 5752 5752 5752 5752 5751 5751 5750 5749 5749 5748 5747 5746 5745 5744 5743 5742 5740 5739 5737 5736 5735 5733 5731 5729 5727 5725 5723 5720 5718 5715 5712 5709 5706 5703 5700 5697 5694 5691
5741 5742 5742 5742 5743 5743 5743 5743 5742 5742 5741 5740 5739 5739 5738 5737 5736 5735 5734 5733 5732 5730 5728 5727 5725 5724 5722 5720 5718 5716 5713 5711 5708 5706 5703 5700 5697 5694 5691 5688 5684 5681 5678
5733 5733 5733 5733 5733 5733 5733 5733 5732 5732 5731 5730 5729 5729 5728 5727 5726 5724 5723 5722 5721 5719 5717 5716 5714 5712 5710 5708 5706 5704 5701 5699 5696 5693 5690 5687 5684 5681 5678 5675 5671 5668 5665
5724 5724 5724 5724 5724 5723 5723 5722 5722 5721 5720 5719 5718 5718 5717 5716 5714 5713 5712 5711 5710 5708 5707 5704 5702 5700 5697 5695 5693 5691 5688 5686 5683 5680 5677 5674 5671 5668 5665 5661 5658 5654 5651
5715 5715 5714 5714 5713 5713 5712 5711 5710 5709 5709 5708 5707 5706 5705 5704 5702 5701 5700 5698 5697 5696 5694 5692 5689 5687 5685 5682 5680 5678 5675 5672 5669 5666 5663 5660 5657 5654 5651 5647 5644 5640 5637
5705 5705 5704 5704 5703 5702 5701 5700 5699 5698 5697 5696 5694 5693 5693 5691 5690 5688 5687 5685 5684 5682 5681 5679 5676 5674 5671 5669 5666 5664 5661 5658 5655 5652 5649 5646 5643 5640 5637 5633 5630 5626 5623
5695 5694 5693 5692 5691 5690 5689 5688 5687 5686 5684 5683 5682 5680 5679 5678 5677 5675 5674 5672 5670 5668 5667 5666 5663 5660 5657 5655 5652 5650 5647 5644 5641 5638 5635 5632 5629 5625 5622 5619 5615 5612 5608
5684 5683 5682 5681 5679 5678 5677 5675 5674 5673 5671 5670 5668 5667 5666 5664 5663 5662 5660 5658 5656 5654 5653 5651 5649 5646 5644 5641 5638 5636 5633 5630 5627 5624 5620 5617 5614 5610 5607 5604 5600 5597 5594
5673 5672 5670 5669 5668 5666 5664 5663 5661 5660 5658 5657 5655 5653 5652 5651 5649 5648 5646 5644 5642 5640 5638 5637 5635 5632 5629 5626 5624 5621 5619 5615 5612 5609 5606 5602 5599 5595 5592 5589 5585 5582 5579
5661 5660 5658 5656 5655 5653 5651 5650 5648 5646 5645 5643 5641 5640 5638 5637 5635 5633 5632 5630 5628 5626 5624 5622 5620 5618 5615 5612 5609 5606 5604 5601 5598 5594 5590 5587 5583 5580 5576 5573 5570 5566 5564
5648 5647 5645 5643 5642 5640 5638 5636 5634 5633 5631 5629 5628 5626 5624 5622 5620 5619 5617 5615 5613 5611 5610 5608 5605 5603 5600 5596 5594 5591 5589 5586 5583 5580 5575 5572 5568 5564 5561 5557 5554 5551 5549
5635 5634 5632 5630 5628 5626 5624 5622 5620 5619 5617 5615 5613 5612 5610 5608 5606 5604 5602 5600 5599 5596 5595 5593 5590 5588 5585 5582 5579 5576 5573 5570 5567 5563 5559 5556 5552 5548 5545 5542 5539 5537 5534
5622 5620 5618 5616 5614 5612 5610 5608 5606 5605 5603 5601 5598 5596 5595 5592 5590 5589 5587 5586 5584 5582 5579 5577 5576 5573 5569 5566 5563 5560 5556 5554 5551 5547 5543 5541 5537 5533 5530 5527 5524 5521 5519
5608 5606 5604 5602 5601 5598 5596 5594 5592 5590 5588 5586 5584 5581 5579 5577 5575 5573 5572 5571 5569 5567 5564 5562 5559 5557 5553 5550 5546 5544 5541 5537 5535 5532 5528 5526 5523 5520 5517 5513 5510 5507 5505
5594 5592 5590 5588 5586 5584 5582 5579 5577 5575 5573 5571 5568 5566 5564 5561 5559 5557 5556 5555 5553 5551 5549 5546 5544 5541 5538 5534 5531 5528 5525 5522 5520 5518 5515 5511 5509 5506 5504 5501 5496 5493 5490